"startDT [UTC]","vpos","CH4 [ppm]","stdev(CH4) [ppm]","CO2 [ppm]","stdev(CO2) [ppm]","H2O [ppm]","stdev(H2O)","p_LGR [torr]","T_LGR [C]","mt1_LGR [us]","mt2_LGR [us]","T_ECpre [C]","T_EC1 [C]","T_EC2 [C]","p_inlet [hPa]","p_in [hPa]","p_out [hPa]","T_inlet [C]","RH_inlet [%]","dwpt_inlet [C]","T_vent [C]","RH_vent [%]","dwpt_vent [C]","flow_vent [l min-1]","flow_inlet [l min-1]","dwpt_sample [C]","T_room [C]"
2012-09-23 00:00:00,0.0,1.9239,0.0009,400.56,0.25,244.3,31.7,138.06,31.04,24.66,36.52,0.97,-26.19,-19.64,-48,40,-929,24.7,25.4,3.5,24.5,1.7,-29.4,5.73,2.58,-27.5,29.6
2012-09-23 00:01:00,0.0,1.9245,0.0008,400.51,0.29,247.2,35.0,138.06,31.04,24.66,36.52,1.04,-26.21,-20.24,-48,40,-929,24.7,25.4,3.6,24.5,1.8,-29.3,5.73,2.58,-27.5,29.6
2012-09-23 00:02:00,0.0,1.9245,0.0008,400.45,0.28,251.4,34.2,138.07,31.04,24.66,36.52,1.07,-26.21,-20.79,-48,40,-929,24.7,25.5,3.6,24.5,1.8,-29.3,5.73,2.56,-27.5,29.6
2012-09-23 00:03:00,0.0,1.9241,0.0010,400.44,0.26,247.9,34.3,138.06,31.04,24.66,36.52,0.97,-26.23,-21.32,-48,40,-929,24.7,25.5,3.6,24.5,1.7,-29.3,5.73,2.56,-27.5,29.6
2012-09-23 00:04:00,0.0,1.9244,0.0009,400.49,0.34,250.7,27.4,138.06,31.04,24.66,36.51,0.97,-26.24,-21.81,-49,40,-929,24.7,25.4,3.6,24.5,1.8,-29.3,5.73,2.57,-27.5,29.6
2012-09-23 00:05:00,0.0,1.9244,0.0008,400.44,0.30,248.3,27.4,138.07,31.04,24.65,36.52,1.03,-26.26,-22.28,-49,40,-929,24.7,25.4,3.6,24.5,1.7,-29.4,5.73,2.58,-27.5,29.6
2012-09-23 00:06:00,0.0,1.9249,0.0011,400.48,0.31,249.5,34.4,138.07,31.04,24.66,36.51,1.07,-26.27,-22.71,-49,40,-929,24.7,25.4,3.6,24.5,1.7,-29.5,5.73,2.58,-27.5,29.6
2012-09-23 00:07:00,0.0,1.9245,0.0009,400.48,0.29,238.8,29.1,138.07,31.04,24.65,36.52,0.98,-26.27,-23.13,-48,40,-929,24.7,25.3,3.5,24.5,1.7,-29.5,5.73,2.56,-27.6,29.6
2012-09-23 00:08:00,0.0,1.9244,0.0009,400.50,0.28,243.9,27.7,138.06,31.04,24.66,36.52,0.97,-26.29,-23.51,-49,40,-929,24.7,25.3,3.5,24.5,1.7,-29.5,5.73,2.56,-27.6,29.6
2012-09-23 00:09:00,0.0,1.9244,0.0009,400.57,0.25,255.5,34.4,138.07,31.04,24.66,36.52,1.03,-26.30,-23.88,-49,40,-929,24.7,25.3,3.5,24.5,1.7,-29.5,5.73,2.58,-27.6,29.6
2012-09-23 00:10:00,0.0,1.9246,0.0011,400.55,0.27,243.6,34.5,138.07,31.04,24.66,36.52,1.04,-26.31,-24.23,-49,40,-929,24.7,25.3,3.5,24.5,1.7,-29.4,5.73,2.59,-27.6,29.6
2012-09-23 00:11:00,0.0,1.9249,0.0009,400.59,0.31,239.7,30.0,138.07,31.04,24.66,36.52,1.00,-26.33,-24.56,-49,40,-929,24.7,25.4,3.6,24.5,1.7,-29.5,5.73,2.57,-27.6,29.6
2012-09-23 00:12:00,0.0,1.9250,0.0008,400.52,0.32,240.5,28.4,138.07,31.04,24.65,36.52,0.97,-26.34,-24.87,-49,40,-929,24.7,25.4,3.6,24.5,1.7,-29.5,5.73,2.55,-27.6,29.6
2012-09-23 00:13:00,0.0,1.9247,0.0009,400.50,0.26,251.1,26.0,138.07,31.04,24.66,36.52,1.02,-26.35,-25.16,-49,40,-929,24.7,25.3,3.5,24.5,1.7,-29.5,5.73,2.57,-27.6,29.6
2012-09-23 00:14:00,0.0,1.9248,0.0009,400.57,0.28,238.9,32.2,138.06,31.04,24.66,36.52,1.06,-26.36,-25.44,-49,40,-929,24.7,25.4,3.5,24.5,1.7,-29.5,5.73,2.59,-27.6,29.6
2012-09-23 00:15:00,0.0,1.9247,0.0009,400.62,0.30,239.7,28.2,138.06,31.04,24.66,36.52,1.00,-26.37,-25.70,-49,40,-929,24.7,25.4,3.6,24.5,1.7,-29.5,5.73,2.58,-27.7,29.6
2012-09-23 00:16:00,0.0,1.9255,0.0012,400.52,0.29,239.8,24.8,138.06,31.04,24.66,36.52,0.95,-26.39,-25.94,-49,40,-929,24.7,25.4,3.6,24.5,1.7,-29.5,5.73,2.55,-27.7,29.5
2012-09-23 00:17:00,0.0,1.9263,0.0011,400.58,0.31,237.3,32.3,138.07,31.04,24.66,36.52,0.98,-26.39,-26.16,-49,40,-929,24.7,25.3,3.6,24.5,1.7,-29.5,5.73,2.57,-27.7,29.6
2012-09-23 00:18:00,0.0,1.9267,0.0009,400.61,0.20,238.6,35.0,138.06,31.04,24.65,36.51,1.01,-26.41,-26.39,-49,40,-929,24.7,25.4,3.6,24.5,1.7,-29.7,5.73,2.58,-27.7,29.6
2012-09-23 00:19:00,0.0,1.9265,0.0008,400.68,0.30,238.1,34.2,138.06,31.04,24.65,36.51,1.00,-26.41,-26.22,-49,40,-929,24.7,25.3,3.5,24.6,1.7,-29.6,5.73,2.58,-27.7,29.6
2012-09-23 00:20:00,0.0,1.9267,0.0009,400.66,0.31,232.4,28.7,138.07,31.04,24.66,36.51,1.02,-26.43,-26.19,-49,40,-929,24.8,25.3,3.6,24.6,1.7,-29.6,5.73,2.56,-27.7,29.6
2012-09-23 00:21:00,0.0,1.9269,0.0008,400.67,0.24,241.8,28.6,138.07,31.04,24.66,36.51,0.95,-26.43,-26.36,-49,40,-929,24.7,25.3,3.5,24.5,1.7,-29.6,5.73,2.56,-27.7,29.6
2012-09-23 00:22:00,0.0,1.9265,0.0008,400.71,0.28,234.0,31.9,138.06,31.04,24.66,36.51,0.91,-26.43,-26.36,-49,40,-929,24.7,25.2,3.5,24.5,1.7,-29.6,5.73,2.58,-27.7,29.6
2012-09-23 00:23:00,0.0,1.9271,0.0010,400.62,0.30,237.4,30.7,138.06,31.04,24.66,36.52,1.00,-26.45,-26.17,-49,40,-929,24.7,25.3,3.5,24.6,1.7,-29.6,5.73,2.59,-27.7,29.6
2012-09-23 00:24:00,0.0,1.9272,0.0009,400.68,0.32,234.6,27.3,138.06,31.04,24.66,36.51,1.08,-26.46,-26.31,-49,40,-929,24.7,25.3,3.6,24.5,1.7,-29.7,5.73,2.57,-27.7,29.6
2012-09-23 00:25:00,0.0,1.9280,0.0009,400.64,0.30,229.3,29.6,138.06,31.04,24.66,36.52,0.99,-26.46,-26.46,-49,40,-929,24.7,25.3,3.6,24.6,1.7,-29.6,5.73,2.55,-27.7,29.6
2012-09-23 00:26:00,0.0,1.9277,0.0010,400.69,0.28,226.3,25.8,138.06,31.04,24.66,36.53,0.95,-26.47,-26.21,-49,40,-929,24.7,25.3,3.6,24.5,1.7,-29.7,5.73,2.56,-27.7,29.6
2012-09-23 00:27:00,0.0,1.9281,0.0009,400.61,0.32,232.6,32.9,138.06,31.04,24.65,36.52,0.95,-26.48,-26.28,-49,40,-929,24.7,25.3,3.6,24.5,1.7,-29.7,5.73,2.59,-27.7,29.6
2012-09-23 00:28:00,0.0,1.9279,0.0010,400.74,0.31,231.5,29.0,138.06,31.04,24.66,36.52,1.01,-26.49,-26.45,-48,40,-929,24.7,25.4,3.6,24.5,1.7,-29.7,5.73,2.59,-27.7,29.6
2012-09-23 00:29:00,0.0,1.9290,0.0009,400.70,0.31,233.0,31.6,138.06,31.04,24.66,36.52,0.94,-26.50,-26.35,-48,40,-929,24.7,25.4,3.5,24.5,1.7,-29.8,5.73,2.57,-27.7,29.5
2012-09-23 00:30:00,0.0,1.9287,0.0008,400.80,0.27,230.2,26.4,138.06,31.04,24.66,36.51,1.04,-26.51,-26.26,-49,40,-929,24.7,25.5,3.6,24.5,1.7,-29.9,5.73,2.55,-27.8,29.6
2012-09-23 00:31:00,0.0,1.9292,0.0010,400.73,0.27,233.5,33.4,138.06,31.04,24.66,36.52,1.00,-26.51,-26.41,-49,40,-929,24.7,25.5,3.6,24.5,1.7,-29.8,5.73,2.57,-27.8,29.6
2012-09-23 00:32:00,0.0,1.9293,0.0010,400.67,0.33,238.0,32.9,138.07,31.04,24.66,36.52,0.92,-25.84,-26.60,-48,40,-929,24.7,25.4,3.5,24.5,1.7,-29.8,5.73,2.58,-27.9,29.6
2012-09-23 00:33:00,0.0,1.9293,0.0010,400.64,0.31,227.2,29.7,138.06,31.04,24.65,36.53,0.84,-24.09,-26.74,-49,40,-930,24.7,25.4,3.5,24.5,1.7,-29.9,5.73,2.58,-27.7,29.6
2012-09-23 00:34:00,0.0,1.9296,0.0008,400.82,0.27,255.3,31.1,138.06,31.04,24.65,36.51,0.86,-22.15,-26.83,-49,40,-929,24.7,25.4,3.6,24.5,1.7,-29.7,5.73,2.57,-27.3,29.6
2012-09-23 00:35:00,0.0,1.9294,0.0008,400.82,0.27,284.0,35.5,138.06,31.04,24.66,36.51,0.89,-20.24,-26.88,-49,40,-930,24.7,25.5,3.6,24.5,1.8,-29.0,5.73,2.56,-26.8,29.6
2012-09-23 00:36:00,0.0,1.9302,0.0010,400.81,0.29,305.2,29.5,138.07,31.04,24.65,36.52,0.91,-18.42,-26.90,-48,40,-929,24.7,25.5,3.6,24.5,1.9,-28.4,5.73,2.57,-26.6,29.6
2012-09-23 00:37:00,0.0,1.9300,0.0009,400.78,0.27,321.2,33.7,138.06,31.04,24.66,36.52,0.93,-16.68,-26.91,-49,40,-930,24.7,25.5,3.6,24.5,2.0,-28.0,5.73,2.59,-26.5,29.6
2012-09-23 00:38:00,0.0,1.9305,0.0009,400.72,0.31,321.3,31.0,138.06,31.04,24.66,36.52,0.94,-15.03,-26.90,-49,40,-929,24.7,25.5,3.6,24.5,2.0,-27.8,5.73,2.58,-26.4,29.6
2012-09-23 00:39:00,0.0,1.9313,0.0008,400.82,0.29,326.0,29.8,138.06,31.04,24.66,36.51,0.94,-13.47,-26.89,-49,40,-930,24.7,25.4,3.6,24.5,2.0,-27.8,5.73,2.56,-26.4,29.5
2012-09-23 00:40:00,0.0,1.9308,0.0008,400.89,0.28,318.5,28.4,138.07,31.04,24.65,36.51,0.92,-12.00,-26.88,-48,40,-929,24.7,25.4,3.6,24.5,2.0,-27.8,5.73,2.56,-26.4,29.6
2012-09-23 00:41:00,0.0,1.9310,0.0010,400.88,0.30,311.8,37.0,138.06,31.03,24.66,36.51,0.88,-10.60,-26.86,-49,40,-930,24.7,25.4,3.6,24.5,2.0,-27.9,5.73,2.57,-26.5,29.6
2012-09-23 00:42:00,0.0,1.9313,0.0010,400.82,0.37,312.4,30.2,138.06,31.03,24.66,36.51,0.88,-9.26,-26.84,-48,40,-929,24.7,25.4,3.6,24.5,2.0,-28.1,5.73,2.59,-26.5,29.6
2012-09-23 00:43:00,0.0,1.9314,0.0011,400.77,0.29,314.4,31.0,138.06,31.03,24.66,36.52,0.88,-7.99,-26.83,-49,40,-930,24.7,25.5,3.6,24.5,2.0,-28.1,5.73,2.57,-26.5,29.6
2012-09-23 00:44:00,0.0,1.9316,0.0010,400.88,0.27,307.9,32.4,138.06,31.03,24.66,36.51,0.88,-6.78,-26.81,-49,40,-929,24.7,25.5,3.6,24.5,1.9,-28.2,5.73,2.56,-26.6,29.6
2012-09-23 00:45:00,0.0,1.9319,0.0010,400.87,0.31,306.2,30.6,138.06,31.03,24.66,36.51,0.92,-5.63,-26.79,-48,40,-930,24.7,25.5,3.6,24.5,1.9,-28.3,5.73,2.56,-26.6,29.5
2012-09-23 00:46:00,0.0,1.9326,0.0008,400.96,0.31,308.2,31.6,138.07,31.03,24.66,36.51,0.93,-4.55,-26.78,-49,40,-929,24.7,25.5,3.6,24.5,1.9,-28.4,5.73,2.57,-26.7,29.5
2012-09-23 00:47:00,0.0,1.9330,0.0008,400.80,0.27,295.4,27.0,138.06,31.03,24.66,36.52,0.92,-3.52,-26.76,-49,40,-930,24.7,25.5,3.6,24.5,1.9,-28.5,5.73,2.58,-26.7,29.6
2012-09-23 00:48:00,0.0,1.9328,0.0011,400.78,0.28,297.2,30.6,138.06,31.03,24.66,36.52,0.93,-2.54,-26.74,-48,40,-929,24.7,25.4,3.5,24.5,1.9,-28.6,5.73,2.58,-26.8,29.6
2012-09-23 00:49:00,0.0,1.9328,0.0008,400.77,0.29,287.8,32.4,138.06,31.03,24.66,36.52,0.94,-1.61,-26.72,-48,40,-930,24.7,25.5,3.6,24.5,1.9,-28.6,5.73,2.57,-26.9,29.6
2012-09-23 00:50:00,0.0,1.9331,0.0010,400.86,0.27,286.3,33.3,138.06,31.03,24.66,36.52,0.94,-0.73,-26.71,-49,40,-929,24.7,25.4,3.5,24.5,1.9,-28.7,5.73,2.56,-26.9,29.6
2012-09-23 00:51:00,0.0,1.9336,0.0008,400.99,0.33,280.4,30.8,138.06,31.03,24.66,36.51,0.94,0.09,-26.69,-48,40,-930,24.7,25.5,3.6,24.5,1.8,-28.8,5.73,2.57,-27.0,29.6
2012-09-23 00:52:00,0.0,1.9334,0.0009,400.97,0.29,279.9,38.5,138.06,31.03,24.66,36.52,0.94,0.89,-26.67,-48,40,-929,24.7,25.5,3.6,24.5,1.8,-28.8,5.73,2.58,-27.0,29.6
2012-09-23 00:53:00,0.0,1.9336,0.0010,400.90,0.28,272.3,30.9,138.06,31.03,24.66,36.51,0.94,1.62,-26.66,-48,40,-929,24.7,25.5,3.6,24.5,1.8,-28.9,5.73,2.59,-27.1,29.7
2012-09-23 00:54:00,0.0,1.9338,0.0009,400.91,0.22,270.6,27.2,138.06,31.03,24.66,36.51,0.93,2.30,-26.64,-48,40,-929,24.7,25.5,3.6,24.5,1.8,-29.0,5.73,2.58,-27.1,29.6
2012-09-23 00:55:00,0.0,1.9342,0.0009,400.97,0.25,273.7,31.3,138.06,31.04,24.66,36.52,0.90,2.77,-26.62,-48,40,-929,24.7,25.4,3.6,24.5,1.8,-29.0,5.73,2.57,-27.1,29.6
2012-09-23 00:56:00,0.0,1.9346,0.0010,400.98,0.29,268.5,29.7,138.06,31.04,24.65,36.52,0.93,2.93,-26.60,-48,40,-929,24.7,25.5,3.6,24.5,1.8,-29.1,5.73,2.56,-27.2,29.6
2012-09-23 00:57:00,0.0,1.9343,0.0010,400.85,0.27,262.7,34.0,138.06,31.04,24.66,36.52,0.92,3.18,-26.59,-48,40,-929,24.6,25.5,3.6,24.5,1.8,-29.2,5.73,2.58,-27.2,29.6
2012-09-23 00:58:00,0.0,1.9349,0.0009,400.93,0.26,264.8,31.8,138.06,31.04,24.65,36.52,0.91,3.54,-26.58,-48,40,-930,24.6,25.5,3.6,24.5,1.8,-29.2,5.73,2.59,-27.3,29.6
2012-09-23 00:59:00,0.0,1.9347,0.0009,400.88,0.28,266.2,25.8,138.06,31.04,24.66,36.52,0.93,3.96,-26.56,-48,40,-929,24.6,25.5,3.5,24.5,1.8,-29.3,5.73,2.58,-27.3,29.5
2012-09-23 01:00:00,0.0,1.9347,0.0010,400.99,0.25,266.6,29.1,138.06,31.04,24.66,36.51,0.93,4.44,-26.54,-48,40,-930,24.6,25.5,3.5,24.4,1.8,-29.4,5.73,2.57,-27.3,29.6
2012-09-23 01:01:00,0.0,1.9353,0.0010,400.96,0.27,258.4,28.6,138.06,31.03,24.66,36.52,0.89,4.91,-26.53,-48,40,-929,24.6,25.6,3.6,24.5,1.8,-29.3,5.73,2.56,-27.3,29.6
2012-09-23 01:02:00,0.0,1.9357,0.0009,401.01,0.31,255.2,35.8,138.06,31.03,24.66,36.51,0.93,5.33,-26.52,-48,40,-930,24.6,25.6,3.6,24.4,1.8,-29.4,5.73,2.56,-27.4,29.6
2012-09-23 01:03:00,0.0,1.9365,0.0009,401.01,0.27,254.1,29.1,138.06,31.03,24.66,36.52,0.92,5.71,-26.50,-48,40,-929,24.6,25.6,3.6,24.4,1.7,-29.4,5.73,2.58,-27.4,29.6
2012-09-23 01:04:00,0.0,1.9372,0.0009,400.92,0.26,251.6,33.0,138.06,31.03,24.65,36.52,0.92,6.18,-26.49,-48,40,-930,24.6,25.6,3.6,24.5,1.8,-29.3,5.73,2.58,-27.4,29.6
2012-09-23 01:05:00,0.0,1.9369,0.0009,400.95,0.28,257.7,33.2,138.06,31.03,24.65,36.52,0.92,6.64,-26.47,-48,40,-929,24.6,25.6,3.6,24.4,1.8,-29.3,5.73,2.58,-27.4,29.7
2012-09-23 01:06:00,0.0,1.9371,0.0009,400.94,0.32,257.4,31.1,138.06,31.03,24.66,36.52,0.94,7.21,-26.46,-48,40,-929,24.6,25.6,3.6,24.5,1.8,-29.4,5.73,2.56,-27.4,29.6
2012-09-23 01:07:00,0.0,1.9370,0.0008,401.04,0.29,259.5,33.1,138.06,31.03,24.66,36.51,0.92,7.66,-26.45,-48,40,-930,24.6,25.5,3.6,24.5,1.8,-29.4,5.73,2.56,-27.5,29.6
2012-09-23 01:08:00,0.0,1.9372,0.0009,401.06,0.30,252.4,27.8,138.06,31.03,24.66,36.52,0.93,8.08,-26.43,-48,40,-929,24.6,25.6,3.6,24.5,1.8,-29.4,5.73,2.57,-27.4,29.6
2012-09-23 01:09:00,0.0,1.9373,0.0009,401.06,0.30,247.6,28.9,138.06,31.03,24.66,36.51,0.93,8.48,-26.42,-48,40,-930,24.6,25.6,3.6,24.5,1.7,-29.5,5.73,2.58,-27.5,29.6
2012-09-23 01:10:00,0.0,1.9373,0.0009,401.09,0.27,251.0,31.6,138.06,31.03,24.66,36.52,0.94,8.86,-26.40,-48,40,-929,24.6,25.6,3.6,24.5,1.7,-29.5,5.73,2.58,-27.5,29.6
2012-09-23 01:11:00,0.0,1.9375,0.0009,401.08,0.26,246.0,30.9,138.06,31.04,24.66,36.51,0.93,9.22,-26.40,-48,40,-930,24.6,25.6,3.6,24.5,1.7,-29.5,5.73,2.57,-27.5,29.6
2012-09-23 01:12:00,0.0,1.9383,0.0010,401.08,0.28,248.1,28.2,138.06,31.04,24.66,36.51,0.95,9.58,-26.38,-48,40,-930,24.6,25.6,3.6,24.5,1.7,-29.5,5.73,2.56,-27.5,29.6
2012-09-23 01:13:00,0.0,1.9382,0.0008,401.05,0.30,251.4,32.7,138.06,31.04,24.66,36.52,0.94,9.93,-26.37,-48,40,-930,24.6,25.6,3.7,24.5,1.7,-29.5,5.73,2.56,-27.5,29.6
2012-09-23 01:14:00,0.0,1.9388,0.0008,401.06,0.32,249.4,25.3,138.06,31.04,24.66,36.52,0.93,10.26,-26.36,-48,40,-930,24.6,25.7,3.7,24.5,1.7,-29.5,5.73,2.56,-27.5,29.6
2012-09-23 01:15:00,0.0,1.9390,0.0008,401.04,0.23,239.1,33.9,138.06,31.04,24.66,36.52,0.94,10.58,-26.35,-48,40,-929,24.7,25.7,3.7,24.5,1.7,-29.5,5.73,2.58,-27.5,29.6
2012-09-23 01:16:00,0.0,1.9390,0.0009,401.09,0.26,242.0,33.7,138.06,31.04,24.66,36.51,0.94,10.89,-26.34,-48,40,-930,24.6,25.6,3.6,24.5,1.7,-29.5,5.73,2.58,-27.5,29.6
2012-09-23 01:17:00,0.0,1.9394,0.0008,400.97,0.29,244.9,33.6,138.06,31.04,24.65,36.52,0.94,11.19,-26.33,-48,40,-930,24.6,25.7,3.6,24.4,1.7,-29.5,5.73,2.58,-27.5,29.7
2012-09-23 01:18:00,0.0,1.9395,0.0008,401.07,0.28,246.5,28.7,138.06,31.04,24.66,36.52,0.94,11.48,-26.32,-48,40,-929,24.6,25.7,3.6,24.5,1.7,-29.5,5.73,2.57,-27.5,29.7
2012-09-23 01:19:00,0.0,1.9399,0.0009,401.08,0.28,245.3,31.4,138.06,31.04,24.66,36.52,0.94,11.75,-26.31,-48,40,-930,24.6,25.7,3.6,24.5,1.7,-29.5,5.73,2.56,-27.5,29.6
2012-09-23 01:20:00,0.0,1.9397,0.0010,401.04,0.29,243.8,35.3,138.06,31.04,24.66,36.52,0.95,12.02,-26.30,-48,40,-930,24.6,25.7,3.6,24.5,1.7,-29.5,5.73,2.56,-27.5,29.6
2012-09-23 01:21:00,0.0,1.9404,0.0008,401.07,0.29,240.0,30.2,138.06,31.04,24.65,36.52,0.94,12.28,-26.29,-48,40,-930,24.6,25.7,3.7,24.5,1.7,-29.5,5.73,2.57,-27.5,29.6
2012-09-23 01:22:00,0.0,1.9401,0.0009,401.15,0.31,242.3,33.7,138.06,31.04,24.66,36.52,0.93,12.52,-26.29,-48,40,-930,24.7,25.8,3.7,24.5,1.7,-29.5,5.73,2.58,-27.5,29.7
2012-09-23 01:23:00,0.0,1.9402,0.0011,401.05,0.30,242.0,30.6,138.06,31.04,24.66,36.52,0.94,12.76,-26.27,-48,40,-929,24.7,25.7,3.7,24.5,1.7,-29.5,5.73,2.58,-27.6,29.7
2012-09-23 01:24:00,0.0,1.9407,0.0010,401.11,0.29,245.6,29.3,138.06,31.04,24.66,36.51,0.94,12.99,-26.27,-48,40,-930,24.7,25.7,3.7,24.5,1.7,-29.6,5.73,2.57,-27.6,29.7
2012-09-23 01:25:00,0.0,1.9410,0.0009,401.22,0.28,240.7,31.9,138.06,31.04,24.66,36.51,0.94,13.20,-26.26,-48,40,-930,24.7,25.7,3.7,24.5,1.7,-29.5,5.73,2.56,-27.6,29.7
2012-09-23 01:26:00,0.0,1.9407,0.0009,401.25,0.27,242.8,29.8,138.06,31.04,24.66,36.51,0.94,13.41,-26.25,-48,40,-930,24.7,25.7,3.7,24.5,1.7,-29.5,5.73,2.56,-27.6,29.7
2012-09-23 01:27:00,0.0,1.9417,0.0010,401.19,0.28,239.0,31.7,138.06,31.04,24.66,36.52,0.94,13.61,-26.25,-48,40,-930,24.7,25.8,3.7,24.5,1.7,-29.5,5.73,2.58,-27.6,29.6
2012-09-23 01:28:00,0.0,1.9418,0.0008,401.15,0.26,243.8,28.8,138.06,31.04,24.65,36.51,0.94,13.81,-26.24,-48,40,-930,24.7,25.8,3.7,24.5,1.7,-29.5,5.73,2.59,-27.6,29.6
2012-09-23 01:29:00,0.0,1.9415,0.0009,401.09,0.24,244.0,28.7,138.06,31.04,24.66,36.52,0.94,13.99,-26.23,-48,40,-929,24.7,25.8,3.7,24.5,1.7,-29.5,5.73,2.58,-27.6,29.6
2012-09-23 01:30:00,0.0,1.9416,0.0010,401.12,0.31,237.8,33.7,138.06,31.04,24.66,36.51,0.94,14.17,-26.23,-48,40,-930,24.7,25.8,3.7,24.5,1.7,-29.5,5.73,2.56,-27.6,29.6
2012-09-23 01:31:00,0.0,1.9420,0.0010,401.14,0.30,243.7,30.4,138.06,31.04,24.66,36.52,0.94,14.34,-26.22,-48,40,-930,24.7,25.8,3.7,24.5,1.7,-29.5,5.73,2.56,-27.6,29.6
2012-09-23 01:32:00,0.0,1.9425,0.0008,401.15,0.25,252.8,26.6,138.06,31.04,24.66,36.52,0.94,14.51,-26.21,-48,40,-929,24.7,25.8,3.8,24.5,1.7,-29.5,5.73,2.57,-27.6,29.6
2012-09-23 01:33:00,0.0,1.9427,0.0009,401.20,0.30,240.8,27.9,138.06,31.04,24.66,36.52,0.94,14.67,-26.21,-48,40,-930,24.7,25.9,3.8,24.5,1.7,-29.5,5.73,2.58,-27.6,29.6
2012-09-23 01:34:00,0.0,1.9428,0.0009,401.22,0.26,236.0,28.2,138.06,31.04,24.66,36.52,0.94,14.81,-26.21,-48,40,-930,24.6,25.9,3.8,24.5,1.7,-29.5,5.73,2.58,-27.6,29.6
2012-09-23 01:35:00,0.0,1.9424,0.0009,401.11,0.27,233.5,32.1,138.06,31.04,24.66,36.52,0.94,14.96,-26.21,-48,40,-929,24.6,25.9,3.8,24.5,1.7,-29.5,5.73,2.58,-27.6,29.6
2012-09-23 01:36:00,0.0,1.9424,0.0009,401.13,0.27,236.9,32.3,138.06,31.04,24.66,36.52,0.94,15.10,-26.20,-48,40,-930,24.7,25.9,3.8,24.5,1.7,-29.5,5.73,2.57,-27.6,29.6
2012-09-23 01:37:00,0.0,1.9425,0.0009,401.08,0.27,241.0,32.1,138.06,31.04,24.66,36.51,0.94,15.23,-26.19,-48,40,-930,24.6,25.8,3.7,24.5,1.7,-29.5,5.73,2.56,-27.6,29.7
2012-09-23 01:38:00,0.0,1.9430,0.0010,401.16,0.29,239.4,35.0,138.06,31.04,24.66,36.51,0.94,15.36,-26.19,-48,40,-930,24.6,25.8,3.8,24.5,1.7,-29.5,5.73,2.56,-27.6,29.6
2012-09-23 01:39:00,0.0,1.9432,0.0010,401.24,0.27,232.0,30.3,138.06,31.04,24.65,36.52,0.94,15.48,-26.19,-48,40,-930,24.7,25.9,3.8,24.5,1.7,-29.5,5.73,2.57,-27.6,29.7
2012-09-23 01:40:00,0.0,1.9431,0.0009,401.13,0.27,241.0,31.3,138.06,31.04,24.66,36.52,0.93,15.60,-26.18,-48,40,-930,24.7,25.9,3.8,24.5,1.7,-29.5,5.73,2.58,-27.6,29.7
2012-09-23 01:41:00,0.0,1.9433,0.0009,401.10,0.32,238.1,30.2,138.06,31.04,24.66,36.52,0.93,15.71,-26.17,-48,40,-930,24.7,25.9,3.8,24.5,1.7,-29.5,5.73,2.58,-27.6,29.6
2012-09-23 01:42:00,0.0,1.9441,0.0008,401.13,0.31,235.8,31.6,138.06,31.04,24.65,36.51,0.94,15.82,-26.17,-48,40,-930,24.7,25.8,3.8,24.5,1.7,-29.5,5.73,2.58,-27.6,29.6
2012-09-23 01:43:00,0.0,1.9441,0.0010,401.06,0.26,242.4,34.0,138.06,31.04,24.65,36.52,0.94,15.92,-26.17,-48,40,-930,24.7,25.8,3.8,24.5,1.7,-29.5,5.73,2.56,-27.6,29.7
2012-09-23 01:44:00,0.0,1.9444,0.0008,401.14,0.29,240.9,28.5,138.06,31.04,24.66,36.52,0.94,16.02,-26.16,-67,40,-930,24.7,25.9,3.8,24.5,1.7,-29.5,5.73,2.56,-27.6,29.7
2012-09-23 01:45:00,0.0,1.9446,0.0009,401.07,0.27,243.5,29.3,138.06,31.04,24.66,36.52,0.95,16.11,-26.16,-48,40,-930,24.7,25.9,3.8,24.5,1.7,-29.5,5.73,2.57,-27.6,29.6
2012-09-23 01:46:00,0.0,1.9446,0.0009,401.08,0.31,241.9,29.6,138.06,31.04,24.66,36.52,0.95,16.20,-26.15,-48,40,-930,24.7,25.9,3.8,24.5,1.7,-29.5,5.73,2.58,-27.6,29.7
2012-09-23 01:47:00,0.0,1.9454,0.0008,401.16,0.31,236.9,29.2,138.06,31.04,24.66,36.52,0.93,16.29,-26.15,-48,40,-930,24.7,26.0,3.8,24.5,1.7,-29.6,5.73,2.58,-27.6,29.6
2012-09-23 01:48:00,0.0,1.9455,0.0010,401.26,0.33,239.7,30.8,138.06,31.04,24.66,36.52,0.94,16.37,-26.15,-48,40,-931,24.7,26.0,3.9,24.5,1.7,-29.5,5.73,2.58,-27.6,29.7
2012-09-23 01:49:00,0.0,1.9449,0.0008,401.23,0.31,236.1,28.1,138.06,31.04,24.66,36.52,0.94,16.44,-26.14,-48,40,-930,24.7,26.0,3.9,24.5,1.7,-29.5,5.73,2.56,-27.6,29.6
2012-09-23 01:50:00,0.0,1.9451,0.0011,401.17,0.30,241.9,32.3,138.06,31.04,24.66,36.52,0.95,16.53,-26.14,-48,40,-930,24.6,26.0,3.8,24.5,1.7,-29.6,5.73,2.56,-27.6,29.6
2012-09-23 01:51:00,0.0,1.9457,0.0011,401.16,0.29,239.6,31.5,138.06,31.04,24.65,36.52,0.95,16.59,-26.14,-48,40,-931,24.6,26.0,3.9,24.5,1.7,-29.7,5.73,2.57,-27.6,29.6
2012-09-23 01:52:00,0.0,1.9452,0.0008,401.24,0.27,231.1,27.1,138.06,31.04,24.66,36.52,0.94,16.67,-26.13,-48,40,-930,24.6,26.1,3.9,24.5,1.7,-29.7,5.73,2.58,-27.6,29.7
2012-09-23 01:53:00,0.0,1.9456,0.0009,401.20,0.28,234.9,32.6,138.06,31.04,24.66,36.51,0.93,16.73,-26.13,-48,40,-930,24.6,26.1,3.9,24.5,1.7,-29.7,5.73,2.58,-27.7,29.6
2012-09-23 01:54:00,0.0,1.9457,0.0009,401.18,0.31,234.6,32.0,138.06,31.04,24.66,36.52,0.94,16.79,-26.13,-48,40,-930,24.6,26.2,3.9,24.5,1.7,-29.7,5.73,2.57,-27.7,29.7
2012-09-23 01:55:00,0.0,1.9457,0.0011,401.21,0.30,228.3,28.7,138.06,31.04,24.66,36.52,0.94,16.84,-26.13,-48,40,-931,24.7,26.2,4.0,24.5,1.7,-29.6,5.73,2.56,-27.7,29.6
2012-09-23 01:56:00,0.0,1.9464,0.0008,401.23,0.27,230.9,25.1,138.06,31.04,24.65,36.51,0.94,16.91,-26.12,-48,40,-930,24.7,26.1,3.9,24.5,1.7,-29.6,5.73,2.56,-27.7,29.6
2012-09-23 01:57:00,0.0,1.9465,0.0010,401.22,0.35,234.9,29.5,138.06,31.04,24.65,36.52,0.93,16.96,-26.11,-48,40,-930,24.7,26.1,3.9,24.5,1.7,-29.6,5.73,2.57,-27.7,29.7
2012-09-23 01:58:00,0.0,1.9464,0.0008,401.21,0.30,230.5,30.9,138.06,31.04,24.65,36.51,0.94,17.01,-26.12,-48,40,-931,24.7,26.1,3.9,24.5,1.7,-29.6,5.73,2.58,-27.7,29.6
2012-09-23 01:59:00,0.0,1.9472,0.0009,401.17,0.33,240.3,32.9,138.06,31.04,24.65,36.52,0.94,17.07,-26.11,-48,40,-930,24.7,26.1,3.9,24.5,1.7,-29.7,5.73,2.58,-27.7,29.7
2012-09-23 02:00:00,0.0,1.9466,0.0009,401.06,0.31,235.8,29.2,138.06,31.04,24.66,36.52,0.95,17.11,-26.11,-48,40,-930,24.7,26.1,3.9,24.5,1.7,-29.6,5.73,2.58,-27.7,29.7
2012-09-23 02:01:00,0.0,1.9472,0.0010,401.23,0.28,242.4,31.3,138.06,31.04,24.65,36.52,0.94,17.16,-26.11,-48,40,-931,24.7,26.1,3.9,24.5,1.7,-29.7,5.73,2.56,-27.7,29.6
2012-09-23 02:02:00,0.0,1.9475,0.0008,401.30,0.23,231.9,32.2,138.06,31.04,24.66,36.51,0.94,17.21,-26.11,-48,40,-930,24.7,26.2,4.0,24.5,1.7,-29.7,5.73,2.56,-27.7,29.7
2012-09-23 02:03:00,0.0,1.9473,0.0011,401.16,0.28,240.8,30.5,138.06,31.04,24.66,36.52,0.94,17.26,-26.10,-48,40,-930,24.7,26.2,4.0,24.5,1.7,-29.7,5.73,2.57,-27.7,29.7
2012-09-23 02:04:00,0.0,1.9479,0.0009,401.15,0.20,233.2,36.6,138.06,31.04,24.65,36.52,0.94,17.29,-26.10,-48,40,-931,24.7,26.2,4.0,24.5,1.7,-29.7,5.73,2.58,-27.7,29.7
2012-09-23 02:05:00,0.0,1.9483,0.0010,401.17,0.27,231.1,27.2,138.06,31.05,24.65,36.52,0.94,17.33,-26.11,-48,40,-930,24.7,26.2,4.0,24.5,1.7,-29.7,5.73,2.58,-27.7,29.6
2012-09-23 02:06:00,0.0,1.9479,0.0009,401.13,0.29,227.9,29.3,138.06,31.05,24.66,36.52,0.94,17.37,-26.10,-48,40,-930,24.6,26.2,4.0,24.5,1.7,-29.7,5.73,2.57,-27.7,29.6
2012-09-23 02:07:00,0.0,1.9477,0.0009,401.18,0.24,230.8,31.7,138.06,31.05,24.66,36.52,0.94,17.40,-26.10,-48,40,-931,24.6,26.2,3.9,24.5,1.7,-29.7,5.73,2.56,-27.7,29.7
2012-09-23 02:08:00,0.0,1.9481,0.0011,401.12,0.25,231.2,28.9,138.06,31.05,24.66,36.52,0.95,17.43,-26.10,-48,40,-930,24.6,26.2,3.9,24.5,1.7,-29.7,5.73,2.56,-27.7,29.7
2012-09-23 02:09:00,0.0,1.9468,0.0008,401.19,0.28,232.8,32.9,138.06,31.05,24.66,36.52,0.93,17.47,-26.10,-48,40,-930,24.6,26.2,3.9,24.5,1.7,-29.7,5.73,2.57,-27.7,29.7
2012-09-23 02:10:00,0.0,1.9460,0.0010,401.15,0.28,229.2,30.8,138.06,31.05,24.65,36.52,0.94,17.50,-26.09,-48,40,-931,24.6,26.2,3.9,24.5,1.7,-29.7,5.73,2.58,-27.8,29.7
2012-09-23 02:11:00,0.0,1.9449,0.0013,401.22,0.28,224.8,32.3,138.06,31.05,24.66,36.51,0.94,17.53,-26.09,-48,40,-930,24.6,26.3,4.0,24.5,1.7,-29.7,5.73,2.58,-27.7,29.7
2012-09-23 02:12:00,0.0,1.9432,0.0008,401.22,0.27,235.6,31.6,138.06,31.05,24.66,36.51,0.94,17.56,-26.09,-48,40,-930,24.7,26.3,4.0,24.5,1.7,-29.7,5.73,2.58,-27.7,29.7
2012-09-23 02:13:00,0.0,1.9421,0.0009,401.03,0.32,224.5,34.0,138.06,31.05,24.65,36.52,0.93,17.59,-26.09,-48,40,-931,24.7,26.4,4.1,24.5,1.7,-29.6,5.73,2.57,-27.8,29.7
2012-09-23 02:14:00,0.0,1.9406,0.0013,401.04,0.32,231.7,32.1,138.06,31.05,24.66,36.52,0.94,17.61,-26.09,-48,40,-930,24.7,26.5,4.1,24.5,1.7,-29.6,5.73,2.56,-27.7,29.7
2012-09-23 02:15:00,0.0,1.9391,0.0009,400.93,0.28,238.3,33.2,138.06,31.05,24.66,36.52,0.94,17.64,-26.09,-48,40,-930,24.7,26.5,4.1,24.5,1.7,-29.7,5.73,2.57,-27.8,29.6
2012-09-23 02:16:00,0.0,1.9394,0.0009,401.05,0.27,227.2,38.5,138.06,31.05,24.65,36.52,0.94,17.66,-26.09,-48,40,-931,24.7,26.5,4.1,24.5,1.7,-29.7,5.73,2.58,-27.7,29.7
2012-09-23 02:17:00,0.0,1.9389,0.0009,400.95,0.24,228.5,29.7,138.06,31.05,24.66,36.52,0.94,17.68,-26.09,-48,40,-930,24.7,26.6,4.2,24.5,1.7,-29.7,5.73,2.59,-27.7,29.6
2012-09-23 02:18:00,0.0,1.9396,0.0009,401.05,0.27,237.1,32.3,138.06,31.05,24.65,36.52,0.93,17.71,-26.09,-48,40,-930,24.7,26.7,4.3,24.5,1.7,-29.7,5.73,2.58,-27.8,29.6
2012-09-23 02:19:00,0.0,1.9392,0.0010,400.97,0.31,232.3,30.6,138.06,31.05,24.66,36.52,0.94,17.72,-26.09,-48,40,-931,24.7,26.7,4.3,24.5,1.7,-29.7,5.73,2.57,-27.7,29.6
2012-09-23 02:20:00,0.0,1.9390,0.0009,401.00,0.32,225.9,27.5,138.06,31.05,24.66,36.52,0.94,17.75,-26.08,-48,40,-930,24.7,26.8,4.3,24.5,1.7,-29.7,5.73,2.56,-27.8,29.6